CW5581 Weather Reports


time (UTC)temp
F
wind
direction
speed
knots
gust
knots
rain 1hr
in
rain 24hr
in
rain mn
in
humidity
%
barometer
mb
20260507094547 45 312 0.0 1.7 0.00 0.00 0.00 91 1021.0
20260507093045 45 283 0.0 1.7 0.00 0.00 0.00 91 1021.3
20260507091536 45 283 0.0 1.7 0.00 0.00 0.00 91 1021.3
20260507090037 46 312 0.0 1.7 0.00 0.00 0.00 91 1021.4
20260507084534 46 268 0.0 3.5 0.00 0.00 0.00 92 1021.3
20260507083020 46 280 0.9 3.5 0.00 0.00 0.00 92 1021.3
20260507081520 46 317 0.9 3.5 0.00 0.00 0.00 92 1021.3
20260507080001 47 293 0.9 3.5 0.00 0.00 0.00 92 1021.2
20260507074554 47 304 0.9 2.6 0.00 0.00 0.00 92 1021.3
20260507073007 47 284 1.7 3.5 0.00 0.00 0.00 92 1021.1
20260507071502 47 342 0.9 3.5 0.00 0.00 0.00 92 1021.1
20260507070058 47 295 0.0 1.7 0.00 0.00 0.00 92 1021.1
20260507064540 47 249 0.0 5.2 0.00 0.00 0.00 92 1021.2
20260507063045 48 276 0.0 2.6 0.00 0.00 0.00 92 1021.2
20260507061526 48 293 0.9 3.5 0.00 0.00 0.00 92 1021.1
20260507060024 48 312 0.9 2.6 0.00 0.00 0.00 91 1021.1
20260507054548 49 286 0.0 1.7 0.00 0.00 0.00 91 1021.2
20260507053049 49 286 0.0 1.7 0.00 0.00 0.00 91 1021.3
20260507051533 49 286 0.0 1.7 0.00 0.00 0.00 91 1021.3
20260507050050 49 312 0.0 2.6 0.00 0.00 0.00 91 1021.4
20260507044518 49 312 1.7 4.3 0.00 0.00 0.00 90 1021.5
20260507043006 49 287 0.9 3.5 0.00 0.00 0.00 90 1021.4
20260507041530 50 262 0.0 1.7 0.00 0.00 0.00 89 1021.4
20260507040034 49 262 1.7 3.5 0.00 0.00 0.00 89 1021.4
20260507034520 50 281 0.9 5.2 0.00 0.00 0.00 89 1021.3
20260507033022 50 294 1.7 4.3 0.00 0.00 0.00 88 1021.2
20260507031540 50 317 1.7 5.2 0.00 0.00 0.00 87 1021.1
20260507030032 51 295 1.7 3.5 0.00 0.00 0.00 87 1021.0
20260507024555 51 297 3.5 7.0 0.00 0.00 0.00 86 1020.8
20260507023053 52 270 1.7 4.3 0.00 0.00 0.00 85 1020.9
20260507021550 52 248 1.7 9.6 0.00 0.00 0.00 85 1020.8
20260507014555 54 285 1.7 7.0 0.00 0.00 0.00 83 1020.5
20260507013102 55 317 1.7 7.8 0.00 0.00 0.00 81 1020.4
20260507011556 57 328 1.7 7.0 0.00 0.00 0.00 78 1020.4
20260507010050 58 290 2.6 7.0 0.00 0.00 0.00 76 1020.4
20260507004558 58 263 1.7 3.5 0.00 0.00 0.00 75 1020.6
20260507003055 58 343 0.9 7.8 0.00 0.00 0.00 76 1020.8
20260507001554 59 354 0.0 6.1 0.00 0.00 0.00 76 1020.7
20260507000013 59 267 3.5 10.4 0.00 0.00 0.00 75 1020.7
20260506234507 60 298 2.6 7.0 0.00 0.00 0.00 72 1020.6
20260506233105 59 188 2.6 6.1 0.00 0.00 0.00 71 1020.3
20260506233002 60 207 2.6 6.1 0.00 0.00 0.00 70 1020.5
20260506231527 62 254 1.7 7.0 0.00 0.00 0.00 71 1020.6
20260506230037 60 305 2.6 8.7 0.00 0.00 0.00 73 1020.6
20260506224539 60 270 1.7 7.8 0.00 0.00 0.00 73 1020.6
20260506223047 60 274 1.7 9.6 0.00 0.00 0.00 75 1020.8
20260506221547 60 267 1.7 5.2 0.00 0.00 0.00 78 1021.0
20260506220041 60 13 0.9 7.0 0.00 0.00 0.00 78 1021.1
20260506214507 58 284 1.7 7.8 0.00 0.00 0.00 82 1021.0
20260506213008 57 252 4.3 9.6 0.00 0.00 0.00 82 1021.0
20260506211554 57 269 4.3 10.4 0.00 0.00 0.00 83 1020.9
20260506210052 59 296 4.3 7.8 0.00 0.00 0.00 79 1020.8
20260506204503 59 288 1.7 11.3 0.00 0.00 0.00 81 1020.7
20260506203059 60 326 4.3 10.4 0.00 0.00 0.00 77 1020.6
20260506201555 62 300 4.3 8.7 0.00 0.00 0.00 75 1020.4
20260506200053 61 295 3.5 7.0 0.00 0.00 0.00 78 1020.4
20260506194513 60 270 1.7 7.8 0.00 0.00 0.00 79 1020.4
20260506193033 58 297 4.3 8.7 0.00 0.00 0.00 81 1020.6
20260506191545 61 284 3.5 8.7 0.00 0.00 0.00 77 1020.3
20260506190004 60 282 1.7 4.3 0.00 0.00 0.00 78 1020.0
20260506184531 62 326 2.6 4.3 0.00 0.00 0.00 76 1020.1
20260506183033 58 22 0.9 4.3 0.00 0.00 0.00 83 1020.4
20260506181535 56 27 0.0 3.5 0.00 0.00 0.00 87 1020.4
20260506180050 54 356 1.7 4.3 0.00 0.00 0.00 88 1020.5
20260506174543 55 317 2.6 7.0 0.00 0.00 0.00 86 1020.3
20260506173042 59 263 3.5 7.8 0.00 0.00 0.00 79 1019.9
20260506171557 56 302 3.5 5.2 0.00 0.00 0.00 83 1019.9
20260506170055 66 260 1.7 4.3 0.00 0.00 0.00 69 1019.8
20260506164539 55 53 0.0 3.5 0.00 0.00 0.00 87 1019.8
20260506163042 56 305 0.9 2.6 0.00 0.00 0.00 88 1020.0
20260506161527 55 317 1.7 4.3 0.00 0.00 0.00 89 1020.0
20260506160032 53 317 1.7 4.3 0.00 0.00 0.00 90 1019.8
20260506154525 57 261 0.0 1.7 0.00 0.00 0.00 85 1019.7
20260506153015 55 39 0.0 3.5 0.00 0.00 0.00 90 1019.8
20260506151500 53 238 0.9 6.1 0.00 0.00 0.00 94 1019.5
20260506150053 51 87 2.6 6.1 0.00 0.00 0.00 95 1019.0
20260506144558 51 93 1.7 3.5 0.00 0.00 0.00 96 1019.4
20260506143029 49 279 0.0 0.0 0.00 0.00 0.00 96 1019.7
20260506141522 49 279 0.0 0.0 0.00 0.00 0.00 96 1020.0
20260506140021 49 279 0.0 1.7 0.00 0.00 0.00 96 1019.7
20260506134509 48 279 1.7 3.5 0.00 0.00 0.00 96 1019.7
20260506133006 48 292 0.0 1.7 0.00 0.00 0.00 96 1019.4
20260506131556 48 292 0.0 1.7 0.00 0.00 0.00 96 1019.3
20260506130050 48 292 0.0 0.9 0.00 0.00 0.00 96 1019.1
20260506124538 48 292 0.0 0.0 0.00 0.00 0.00 96 1019.2
20260506123033 48 292 0.0 1.7 0.00 0.00 0.00 96 1018.9
20260506121524 48 292 0.0 1.7 0.00 0.00 0.00 96 1018.7
20260506120035 48 285 0.9 2.6 0.00 0.00 0.00 96 1018.9
20260506114520 49 303 0.0 2.6 0.00 0.00 0.00 96 1018.9
20260506113048 49 286 0.0 1.7 0.00 0.00 0.00 96 1018.8
20260506111526 49 286 0.0 1.7 0.00 0.00 0.00 96 1018.7
20260506110014 49 286 0.9 1.7 0.00 0.00 0.00 96 1018.7
20260506104544 49 286 0.0 0.0 0.00 0.00 0.00 96 1018.4
20260506103027 49 286 0.0 0.0 0.00 0.00 0.00 96 1018.2
20260506101517 49 286 0.0 0.0 0.00 0.00 0.00 96 1018.2
20260506100028 49 286 0.0 1.7 0.00 0.00 0.00 96 1018.2